Zurück zum Katalog

STARLINK-30996

AktivKommunikationVLEO
NORAD 59023·PAYLOAD·🇺🇸 United States

Gestartet Feb 25, 2024 von Cape Canaveral Space Force Station

Loading…

Nächste Überflüge (nächste 24 Stunden)

TLE

AktuellSource: CelesTrak SupGP

Epoche: Sep 15, 2026, 02:23 UTC

1 59023C 24038A   26258.09979167 -.00019292  00000+0 -69867-3 0  2588
2 59023  43.0019  37.3675 0001502 275.3893 154.2488 15.27590896    19

Verfolge STARLINK-30996 in Echtzeit mit AllMySat

Download on the App Store